Time,TemperatureF,DewpointF,PressureIn,WindDirection,WindDirectionDegrees,WindSpeedMPH,WindSpeedGustMPH,Humidity,HourlyPrecipIn,Conditions,Clouds,dailyrainin,SoftwareType,DateUTC
2013-05-16 00:02:00,75.0,60.0,30.12,ENE,73,0.0,2.0,60,0.00,,,0.00,,2013-05-16 04:02:00,
2013-05-16 00:12:00,75.0,60.0,30.12,ENE,73,0.0,2.0,60,0.00,,,0.00,,2013-05-16 04:12:00,
2013-05-16 00:23:00,74.0,59.0,30.11,NE,48,1.0,4.0,59,0.00,,,0.00,,2013-05-16 04:23:00,
2013-05-16 00:33:00,74.0,59.0,30.11,NE,51,0.0,2.0,59,0.00,,,0.00,,2013-05-16 04:33:00,
2013-05-16 00:42:00,74.0,59.0,30.11,NE,51,0.0,2.0,59,0.00,,,0.00,,2013-05-16 04:42:00,
2013-05-16 00:53:00,74.0,60.0,30.11,NE,48,0.0,2.0,61,0.00,,,0.00,,2013-05-16 04:53:00,
2013-05-16 01:02:00,74.0,60.0,30.11,ENE,64,0.0,2.0,61,0.00,,,0.00,,2013-05-16 05:02:00,
2013-05-16 01:12:00,74.0,60.0,30.11,ENE,64,0.0,2.0,61,0.00,,,0.00,,2013-05-16 05:12:00,
2013-05-16 01:22:00,74.0,60.0,30.10,ENE,58,0.0,2.0,62,0.00,,,0.00,,2013-05-16 05:22:00,
2013-05-16 01:32:00,74.0,61.0,30.10,NE,48,0.0,6.0,63,0.00,,,0.00,,2013-05-16 05:32:00,
2013-05-16 01:42:00,74.0,61.0,30.10,NE,48,0.0,6.0,63,0.00,,,0.00,,2013-05-16 05:42:00,
2013-05-16 01:52:00,74.0,61.0,30.09,NE,52,0.0,4.0,64,0.00,,,0.00,,2013-05-16 05:52:00,
2013-05-16 02:01:00,74.0,61.0,30.09,East,83,1.0,6.0,63,0.00,,,0.00,,2013-05-16 06:01:00,
2013-05-16 02:12:00,74.0,61.0,30.09,East,83,1.0,6.0,63,0.00,,,0.00,,2013-05-16 06:12:00,
2013-05-16 02:22:00,74.0,61.0,30.08,East,82,0.0,6.0,63,0.00,,,0.00,,2013-05-16 06:22:00,
2013-05-16 02:33:00,73.0,60.0,30.08,East,82,0.0,1.0,63,0.00,,,0.00,,2013-05-16 06:33:00,
2013-05-16 02:43:00,73.0,60.0,30.08,East,82,0.0,1.0,63,0.00,,,0.00,,2013-05-16 06:43:00,
2013-05-16 02:53:00,73.0,60.0,30.07,East,95,0.0,1.0,63,0.00,,,0.00,,2013-05-16 06:53:00,
2013-05-16 03:02:00,73.0,59.0,30.07,East,100,0.0,2.0,62,0.00,,,0.00,,2013-05-16 07:02:00,
2013-05-16 03:12:00,73.0,59.0,30.07,East,100,0.0,2.0,62,0.00,,,0.00,,2013-05-16 07:12:00,
2013-05-16 03:24:00,72.0,59.0,30.06,ENE,66,0.0,1.0,63,0.00,,,0.00,,2013-05-16 07:24:00,
2013-05-16 03:34:00,72.0,59.0,30.06,ENE,66,0.0,1.0,64,0.00,,,0.00,,2013-05-16 07:34:00,
2013-05-16 03:44:00,72.0,59.0,30.06,ENE,66,0.0,1.0,64,0.00,,,0.00,,2013-05-16 07:44:00,
2013-05-16 03:54:00,72.0,60.0,30.05,ENE,62,0.0,2.0,65,0.00,,,0.00,,2013-05-16 07:54:00,
2013-05-16 04:03:00,72.0,60.0,30.05,ENE,62,0.0,0.0,67,0.00,,,0.00,,2013-05-16 08:03:00,
2013-05-16 04:13:00,72.0,60.0,30.05,ENE,62,0.0,0.0,67,0.00,,,0.00,,2013-05-16 08:13:00,
2013-05-16 04:24:00,71.0,60.0,30.04,ENE,62,0.0,0.0,69,0.00,,,0.00,,2013-05-16 08:24:00,
2013-05-16 04:34:00,71.0,61.0,30.04,ENE,62,0.0,0.0,70,0.00,,,0.00,,2013-05-16 08:34:00,
2013-05-16 04:45:00,71.0,61.0,30.04,ENE,62,0.0,0.0,70,0.00,,,0.00,,2013-05-16 08:45:00,
2013-05-16 04:55:00,71.0,61.0,30.05,ENE,64,0.0,0.0,71,0.00,,,0.00,,2013-05-16 08:55:00,
2013-05-16 05:04:00,70.0,61.0,30.05,ENE,64,0.0,0.0,72,0.00,,,0.00,,2013-05-16 09:04:00,
2013-05-16 05:14:00,69.0,61.0,30.05,ENE,64,0.0,0.0,76,0.00,,,0.00,,2013-05-16 09:14:00,
2013-05-16 05:24:00,69.0,61.0,30.05,ENE,64,0.0,0.0,76,0.00,,,0.00,,2013-05-16 09:24:00,
2013-05-16 05:35:00,69.0,62.0,30.05,ENE,64,0.0,0.0,78,0.00,,,0.00,,2013-05-16 09:35:00,
2013-05-16 05:45:00,69.0,62.0,30.05,ENE,64,0.0,0.0,78,0.00,,,0.00,,2013-05-16 09:45:00,
2013-05-16 05:55:00,68.0,62.0,30.05,ENE,64,0.0,0.0,81,0.00,,,0.00,,2013-05-16 09:55:00,
2013-05-16 06:05:00,68.0,62.0,30.05,ENE,64,0.0,0.0,82,0.00,,,0.00,,2013-05-16 10:05:00,
2013-05-16 06:15:00,68.0,63.0,30.05,ENE,64,0.0,0.0,84,0.00,,,0.00,,2013-05-16 10:15:00,
2013-05-16 06:24:00,68.0,63.0,30.05,ENE,64,0.0,0.0,84,0.00,,,0.00,,2013-05-16 10:24:00,
2013-05-16 06:36:00,67.0,62.0,30.05,ENE,64,0.0,0.0,85,0.00,,,0.00,,2013-05-16 10:36:00,
2013-05-16 06:45:00,67.0,62.0,30.05,ENE,64,0.0,0.0,85,0.00,,,0.00,,2013-05-16 10:45:00,
2013-05-16 06:56:00,67.0,63.0,30.06,ENE,64,0.0,0.0,86,0.00,,,0.00,,2013-05-16 10:56:00,
2013-05-16 07:05:00,68.0,62.0,30.06,ENE,64,0.0,0.0,82,0.00,,,0.00,,2013-05-16 11:05:00,
2013-05-16 07:14:00,68.0,62.0,30.06,ENE,64,0.0,0.0,82,0.00,,,0.00,,2013-05-16 11:14:00,
2013-05-16 07:25:00,69.0,61.0,30.06,ENE,64,0.0,0.0,77,0.00,,,0.00,,2013-05-16 11:25:00,
2013-05-16 07:35:00,70.0,63.0,30.06,ENE,64,0.0,0.0,78,0.00,,,0.00,,2013-05-16 11:35:00,
2013-05-16 07:46:00,70.0,63.0,30.06,ENE,64,0.0,0.0,78,0.00,,,0.00,,2013-05-16 11:46:00,
2013-05-16 07:57:00,72.0,63.0,30.08,ENE,64,0.0,0.0,73,0.00,,,0.00,,2013-05-16 11:57:00,
2013-05-16 08:06:00,73.0,63.0,30.08,ENE,64,0.0,0.0,72,0.00,,,0.00,,2013-05-16 12:06:00,
2013-05-16 08:13:00,73.0,63.0,30.08,ENE,64,0.0,0.0,72,0.00,,,0.00,,2013-05-16 12:13:00,
2013-05-16 08:23:00,75.0,62.0,30.08,NE,42,0.0,1.0,64,0.00,,,0.00,,2013-05-16 12:23:00,
2013-05-16 08:35:00,76.0,62.0,30.08,NE,48,0.0,0.0,63,0.00,,,0.00,,2013-05-16 12:35:00,
2013-05-16 08:45:00,76.0,62.0,30.08,NE,48,0.0,0.0,63,0.00,,,0.00,,2013-05-16 12:45:00,
2013-05-16 08:53:00,77.0,62.0,30.09,ENE,61,0.0,2.0,60,0.00,,,0.00,,2013-05-16 12:53:00,
2013-05-16 09:04:00,78.0,62.0,30.09,ENE,61,0.0,1.0,59,0.00,,,0.00,,2013-05-16 13:04:00,
2013-05-16 09:12:00,78.0,62.0,30.09,ENE,61,0.0,1.0,59,0.00,,,0.00,,2013-05-16 13:12:00,
2013-05-16 09:26:00,79.0,63.0,30.10,NNE,32,1.0,6.0,59,0.00,,,0.00,,2013-05-16 13:26:00,
2013-05-16 09:35:00,80.0,64.0,30.10,ENE,69,0.0,2.0,58,0.00,,,0.00,,2013-05-16 13:35:00,
2013-05-16 09:43:00,80.0,64.0,30.10,ENE,69,0.0,2.0,58,0.00,,,0.00,,2013-05-16 13:43:00,
2013-05-16 09:55:00,80.0,63.0,30.10,NNE,28,1.0,4.0,57,0.00,,,0.00,,2013-05-16 13:55:00,
2013-05-16 10:05:00,81.0,64.0,30.10,NE,52,1.0,4.0,57,0.00,,,0.00,,2013-05-16 14:05:00,
2013-05-16 10:16:00,81.0,64.0,30.10,NE,52,1.0,4.0,57,0.00,,,0.00,,2013-05-16 14:16:00,
2013-05-16 10:23:00,81.0,62.0,30.10,NNE,16,0.0,2.0,52,0.00,,,0.00,,2013-05-16 14:23:00,
2013-05-16 10:37:00,82.0,63.0,30.10,East,86,0.0,4.0,52,0.00,,,0.00,,2013-05-16 14:37:00,
2013-05-16 10:47:00,82.0,63.0,30.10,East,86,0.0,4.0,52,0.00,,,0.00,,2013-05-16 14:47:00,
2013-05-16 10:56:00,83.0,64.0,30.11,ESE,116,0.0,6.0,53,0.00,,,0.00,,2013-05-16 14:56:00,
2013-05-16 11:08:00,81.0,64.0,30.11,NE,47,1.0,7.0,56,0.00,,,0.00,,2013-05-16 15:08:00,
2013-05-16 11:17:00,81.0,64.0,30.11,NE,47,1.0,7.0,56,0.00,,,0.00,,2013-05-16 15:17:00,
2013-05-16 11:28:00,81.0,66.0,30.11,ESE,113,0.0,7.0,60,0.00,,,0.00,,2013-05-16 15:28:00,
2013-05-16 11:40:00,81.0,64.0,30.11,NE,42,0.0,11.0,57,0.00,,,0.00,,2013-05-16 15:40:00,
2013-05-16 11:50:00,80.0,63.0,30.11,NNE,28,0.0,6.0,57,0.00,,,0.00,,2013-05-16 15:50:00,
2013-05-16 12:00:00,80.0,63.0,30.11,NNE,28,0.0,6.0,57,0.00,,,0.00,,2013-05-16 16:00:00,
2013-05-16 12:09:00,81.0,65.0,30.11,ENE,62,1.0,4.0,58,0.00,,,0.00,,2013-05-16 16:09:00,
2013-05-16 12:20:00,81.0,65.0,30.11,ENE,62,1.0,4.0,58,0.00,,,0.00,,2013-05-16 16:20:00,
2013-05-16 12:30:00,80.0,65.0,30.11,NE,42,0.0,9.0,60,0.00,,,0.00,,2013-05-16 16:30:00,
2013-05-16 12:40:00,82.0,-99.9,30.11,NE,56,0.0,4.0,55,0.00,,,0.00,,2013-05-16 16:40:00,
2013-05-16 12:50:00,82.0,64.0,30.11,NE,56,0.0,4.0,55,0.00,,,0.00,,2013-05-16 16:50:00,
2013-05-16 13:01:00,80.0,64.0,30.11,NE,40,0.0,4.0,58,0.00,,,0.00,,2013-05-16 17:01:00,
2013-05-16 13:10:00,80.0,64.0,30.11,NE,56,0.0,2.0,58,0.00,,,0.00,,2013-05-16 17:10:00,
2013-05-16 13:20:00,80.0,64.0,30.11,NE,56,0.0,2.0,58,0.00,,,0.00,,2013-05-16 17:20:00,
2013-05-16 13:31:00,80.0,63.0,30.10,NE,51,0.0,9.0,57,0.00,,,0.00,,2013-05-16 17:31:00,
2013-05-16 13:40:00,82.0,67.0,30.10,East,86,0.0,7.0,60,0.00,,,0.00,,2013-05-16 17:40:00,
2013-05-16 13:50:00,80.0,-99.9,30.10,ESE,119,0.0,6.0,58,0.00,,,0.00,,2013-05-16 17:50:00,
2013-05-16 14:00:00,-999.0,-99.9,30.10,ESE,119,0.0,6.0,58,0.00,,,0.00,,2013-05-16 18:00:00,
2013-05-16 14:10:00,81.0,63.0,30.10,NE,35,2.0,6.0,55,0.00,,,0.00,,2013-05-16 18:10:00,
2013-05-16 14:20:00,81.0,63.0,30.10,NE,35,2.0,6.0,55,0.00,,,0.00,,2013-05-16 18:20:00,
2013-05-16 14:30:00,-999.0,-99.9,30.10,ENE,72,0.0,6.0,56,0.00,,,0.00,,2013-05-16 18:30:00,
2013-05-16 14:40:00,-999.0,-99.9,30.10,NE,48,2.0,7.0,56,0.00,,,0.00,,2013-05-16 18:40:00,
2013-05-16 14:50:00,-999.0,-99.9,30.10,NE,48,2.0,7.0,56,0.00,,,0.00,,2013-05-16 18:50:00,
2013-05-16 15:00:00,-999.0,-99.9,30.09,ENE,66,0.0,7.0,54,0.00,,,0.00,,2013-05-16 19:00:00,
2013-05-16 15:10:00,83.0,65.0,30.09,East,97,1.0,4.0,54,0.00,,,0.00,,2013-05-16 19:10:00,
2013-05-16 15:20:00,83.0,65.0,30.09,East,97,1.0,4.0,54,0.00,,,0.00,,2013-05-16 19:20:00,
2013-05-16 15:30:00,81.0,64.0,30.08,NE,47,1.0,9.0,56,0.00,,,0.00,,2013-05-16 19:30:00,
2013-05-16 15:40:00,83.0,-99.9,30.08,NE,47,2.0,9.0,53,0.00,,,0.00,,2013-05-16 19:40:00,
2013-05-16 15:50:00,-999.0,-99.9,30.08,NE,47,2.0,9.0,53,0.00,,,0.00,,2013-05-16 19:50:00,
2013-05-16 16:01:00,-999.0,-99.9,30.07,ENE,68,1.0,9.0,55,0.00,,,0.00,,2013-05-16 20:01:00,
2013-05-16 16:10:00,-999.0,-99.9,30.07,ESE,109,1.0,7.0,56,0.00,,,0.00,,2013-05-16 20:10:00,
2013-05-16 16:20:00,80.0,-99.9,30.06,East,95,0.0,4.0,58,0.00,,,0.00,,2013-05-16 20:20:00,
2013-05-16 16:30:00,80.0,-99.9,30.06,East,95,0.0,4.0,58,0.00,,,0.00,,2013-05-16 20:30:00,
2013-05-16 16:40:00,-999.0,-99.9,30.06,NNE,30,1.0,8.0,59,0.00,,,0.00,,2013-05-16 20:40:00,
2013-05-16 16:50:00,81.0,64.0,30.06,NE,54,0.0,7.0,57,0.00,,,0.00,,2013-05-16 20:50:00,
2013-05-16 17:00:00,81.0,-99.9,30.06,NE,54,0.0,7.0,57,0.00,,,0.00,,2013-05-16 21:00:00,
2013-05-16 17:10:00,81.0,-99.9,30.06,SE,124,0.0,6.0,58,0.00,,,0.00,,2013-05-16 21:10:00,
2013-05-16 17:20:00,81.0,-99.9,30.06,SE,124,0.0,6.0,58,0.00,,,0.00,,2013-05-16 21:20:00,
2013-05-16 17:29:00,80.0,63.0,30.06,ENE,76,2.0,10.0,57,0.00,,,0.00,,2013-05-16 21:29:00,
2013-05-16 17:38:00,80.0,64.0,30.06,SE,124,0.0,9.0,58,0.00,,,0.00,,2013-05-16 21:38:00,
2013-05-16 17:50:00,80.0,-99.9,30.06,SE,124,0.0,9.0,58,0.00,,,0.00,,2013-05-16 21:50:00,
2013-05-16 18:00:00,-999.0,-99.9,30.06,ESE,110,1.0,10.0,58,0.00,,,0.00,,2013-05-16 22:00:00,
2013-05-16 18:08:00,79.0,63.0,30.06,NE,45,0.0,7.0,59,0.00,,,0.00,,2013-05-16 22:08:00,
2013-05-16 18:21:00,79.0,63.0,30.06,NE,45,0.0,7.0,59,0.00,,,0.00,,2013-05-16 22:21:00,
2013-05-16 18:30:00,79.0,63.0,30.05,ENE,75,2.0,7.0,58,0.00,,,0.00,,2013-05-16 22:30:00,
2013-05-16 18:40:00,79.0,63.0,30.05,ESE,119,0.0,8.0,59,0.00,,,0.00,,2013-05-16 22:40:00,
2013-05-16 18:51:00,79.0,63.0,30.05,ESE,119,0.0,8.0,59,0.00,,,0.00,,2013-05-16 22:51:00,
2013-05-16 19:01:00,79.0,63.0,30.05,East,86,0.0,7.0,59,0.00,,,0.00,,2013-05-16 23:01:00,
2013-05-16 19:06:00,79.0,64.0,30.05,ESE,109,0.0,9.0,60,0.00,,,0.00,,2013-05-16 23:06:00,
2013-05-16 19:16:00,78.0,63.0,30.05,NNE,28,0.0,4.0,60,0.00,,,0.00,,2013-05-16 23:16:00,
2013-05-16 19:24:00,78.0,63.0,30.05,NNE,28,0.0,4.0,60,0.00,,,0.00,,2013-05-16 23:24:00,
2013-05-16 19:35:00,78.0,64.0,30.05,NE,44,0.0,9.0,62,0.00,,,0.00,,2013-05-16 23:35:00,
2013-05-16 19:45:00,78.0,64.0,30.05,NE,44,0.0,9.0,62,0.00,,,0.00,,2013-05-16 23:45:00,
2013-05-16 19:54:00,77.0,64.0,30.04,NE,48,1.0,10.0,65,0.00,,,0.00,,2013-05-16 23:54:00,
2013-05-16 20:02:00,77.0,64.0,30.04,ESE,109,1.0,8.0,64,0.00,,,0.00,,2013-05-17 00:02:00,
2013-05-16 20:13:00,77.0,64.0,30.04,ESE,109,1.0,8.0,64,0.00,,,0.00,,2013-05-17 00:13:00,
2013-05-16 20:22:00,77.0,64.0,30.05,ENE,75,0.0,6.0,65,0.00,,,0.00,,2013-05-17 00:22:00,
2013-05-16 20:33:00,76.0,63.0,30.05,ENE,62,0.0,7.0,65,0.00,,,0.00,,2013-05-17 00:33:00,
2013-05-16 20:43:00,76.0,63.0,30.05,ENE,62,0.0,7.0,65,0.00,,,0.00,,2013-05-17 00:43:00,
2013-05-16 20:53:00,76.0,64.0,30.04,NE,44,0.0,6.0,66,0.00,,,0.00,,2013-05-17 00:53:00,
2013-05-16 21:03:00,76.0,63.0,30.04,NE,48,0.0,7.0,65,0.00,,,0.00,,2013-05-17 01:03:00,
2013-05-16 21:12:00,76.0,63.0,30.04,NE,48,0.0,7.0,65,0.00,,,0.00,,2013-05-17 01:12:00,
2013-05-16 21:23:00,76.0,63.0,30.05,ESE,113,0.0,1.0,65,0.00,,,0.00,,2013-05-17 01:23:00,
2013-05-16 21:32:00,76.0,64.0,30.05,ESE,104,0.0,4.0,67,0.00,,,0.00,,2013-05-17 01:32:00,
2013-05-16 21:43:00,76.0,64.0,30.05,ESE,104,0.0,4.0,67,0.00,,,0.00,,2013-05-17 01:43:00,
2013-05-16 21:53:00,75.0,63.0,30.06,ENE,58,0.0,6.0,67,0.00,,,0.00,,2013-05-17 01:53:00,
2013-05-16 22:02:00,75.0,63.0,30.06,ESE,112,0.0,4.0,67,0.00,,,0.00,,2013-05-17 02:02:00,
2013-05-16 22:11:00,75.0,63.0,30.06,ESE,112,0.0,4.0,67,0.00,,,0.00,,2013-05-17 02:11:00,
2013-05-16 22:22:00,75.0,64.0,30.06,ESE,107,0.0,1.0,68,0.00,,,0.00,,2013-05-17 02:22:00,
2013-05-16 22:32:00,75.0,64.0,30.06,ESE,109,0.0,0.0,69,0.00,,,0.00,,2013-05-17 02:32:00,
2013-05-16 22:42:00,75.0,64.0,30.06,ESE,109,0.0,0.0,69,0.00,,,0.00,,2013-05-17 02:42:00,
2013-05-16 22:53:00,75.0,65.0,30.06,East,99,0.0,1.0,71,0.00,,,0.00,,2013-05-17 02:53:00,
2013-05-16 23:02:00,75.0,65.0,30.06,East,99,0.0,1.0,72,0.00,,,0.00,,2013-05-17 03:02:00,
2013-05-16 23:11:00,75.0,65.0,30.06,East,99,0.0,1.0,72,0.00,,,0.00,,2013-05-17 03:11:00,
2013-05-16 23:23:00,75.0,65.0,30.06,NE,54,0.0,4.0,70,0.00,,,0.00,,2013-05-17 03:23:00,
2013-05-16 23:34:00,75.0,65.0,30.06,ENE,59,0.0,1.0,70,0.00,,,0.00,,2013-05-17 03:34:00,
2013-05-16 23:43:00,75.0,65.0,30.06,ENE,59,0.0,1.0,70,0.00,,,0.00,,2013-05-17 03:43:00,
2013-05-16 23:53:00,75.0,65.0,30.06,ENE,68,0.0,1.0,70,0.00,,,0.00,,2013-05-17 03:53:00,